[Date Prev][Date Next][Thread Prev][Thread Next] - [Date Index][Thread Index][Author Index]
2 Line ISS Keps 5-10
- Subject: [sarex] 2 Line ISS Keps 5-10
- From: "Dave Larsen PhD" <doc@xxxxxxxxxxx>
- Date: Sat, 10 May 2003 03:11:51 -0700
ISS
1 25544U 98067A 03130.10182856 .00015343 00000-0 19821-3 0 9910
2 25544 51.6312 211.6130 0006458 99.0992 341.0920 15.59144570255063
----
Via the sarex mailing list at AMSAT.ORG courtesy of AMSAT-NA.
To unsubscribe, send "unsubscribe sarex" to Majordomo@amsat.org
AMSAT Home